Theta_e
294 293 293 293 295 301 303 302 303 304 304 305 306 307 307 306 306 305 307 307 308 309 311 310 311 311 312 310 312 313 315 317 321 322 322 320 318 319 319 318 316 313 311 308
294 293 294 294 293 294 300 300 305 305 303 305 305 305 305 305 306 307 307 308 308 310 311 310 310 310 310 311 311 311 312 316 317 319 320 321 318 317 317 317 315 313 310 307
293 293 293 294 295 294 293 295 299 304 304 304 304 305 305 303 303 305 306 308 308 309 310 310 310 310 310 310 310 310 311 311 312 316 320 321 320 318 317 316 314 313 310 307
295 294 294 294 294 295 296 294 295 298 300 307 304 306 305 305 305 305 305 305 307 307 308 309 310 310 310 310 310 309 309 309 311 315 317 319 319 318 316 314 314 313 311 309
293 294 295 296 295 295 295 295 296 299 303 304 306 307 305 303 304 304 304 305 305 306 307 308 308 309 310 310 310 310 310 308 308 311 313 316 319 319 317 315 314 313 311 309
295 295 293 294 296 296 296 296 295 295 299 300 303 306 304 302 304 303 303 304 305 306 306 307 307 308 308 309 310 310 309 309 308 308 310 313 316 319 319 317 314 314 312 309
295 296 297 296 297 296 296 295 290 295 299 299 300 304 305 301 301 302 303 304 304 305 305 306 307 308 309 309 310 310 310 310 309 309 309 310 313 316 317 317 315 314 313 310
296 295 296 299 299 297 297 295 290 294 301 300 300 301 302 302 301 301 302 303 304 303 304 305 307 307 308 308 307 308 309 310 310 309 309 309 312 314 316 317 315 314 314 312
297 294 296 297 297 299 299 298 297 299 290 303 302 302 302 300 300 302 302 300 300 302 303 304 304 305 306 307 307 308 308 308 309 309 309 309 310 313 314 315 315 315 314 312
292 295 296 300 299 299 298 298 298 299 300 304 300 300 300 294 295 295 292 294 296 298 300 302 302 303 304 305 306 306 306 307 307 308 307 308 309 310 312 313 314 314 314 312
292 293 295 296 299 300 299 300 296 301 300 296 299 303 291 289 286 285 289 293 293 294 296 298 299 300 302 302 303 304 305 305 305 306 306 307 308 309 310 311 312 313 312 310
288 296 295 295 296 299 300 302 301 294 296 296 296 301 290 290 288 293 294 291 292 293 293 295 297 298 299 300 301 302 302 302 302 303 304 305 306 307 307 309 311 311 309 307
291 290 292 292 295 298 297 299 302 300 301 302 296 293 290 290 287 291 292 293 291 291 294 294 295 297 298 298 299 300 300 300 300 301 302 303 304 305 307 306 308 307 305 304
293 289 291 294 295 296 295 293 295 302 298 297 293 294 290 288 288 288 287 288 291 291 292 293 293 295 295 296 297 298 298 298 298 299 300 300 302 303 304 306 305 303 303 302
291 289 290 292 294 295 294 293 293 294 294 297 294 292 289 289 286 285 285 285 287 288 291 292 292 292 293 294 294 297 298 297 297 297 298 299 301 302 302 301 302 302 302 301
290 290 291 293 296 294 294 293 292 292 292 292 293 292 290 287 286 285 284 283 284 285 287 291 292 291 292 294 294 294 297 297 296 296 297 298 299 299 299 299 299 298 297 296
292 288 289 293 295 295 293 292 292 290 289 291 290 290 288 286 285 284 284 283 283 284 285 289 290 291 292 293 293 294 294 295 295 296 296 296 296 296 296 296 296 296 295 295
288 288 288 292 294 294 293 291 290 289 288 287 288 287 286 287 288 285 285 283 283 284 285 288 290 290 291 292 293 293 293 294 294 294 294 294 294 294 294 293 293 293 293 293
291 290 287 293 292 294 294 291 291 290 288 286 286 286 285 286 288 287 286 284 284 284 285 287 288 289 290 291 291 291 292 292 292 293 292 292 293 293 292 292 291 291 291 292
292 291 292 290 290 290 291 289 289 288 287 286 284 284 283 286 288 287 285 284 284 284 284 286 287 288 288 288 289 289 290 290 291 290 290 291 291 291 291 291 291 291 291 291
292 290 291 290 288 286 288 287 288 289 287 285 284 283 283 283 284 284 285 285 284 284 285 285 286 286 286 287 287 288 288 288 288 288 289 289 289 290 290 289 290 290 289 289
292 291 292 291 286 288 286 287 288 285 284 284 283 283 282 283 284 284 284 284 284 284 285 285 285 285 285 285 286 286 287 286 286 287 287 287 287 287 287 287 288 287 286 287
292 290 291 291 291 287 285 284 283 282 282 283 282 282 282 282 283 283 283 283 283 284 284 284 284 284 284 284 284 285 285 285 286 286 286 285 285 286 286 286 287 286 286 286
289 287 291 290 287 285 284 284 282 282 282 282 282 282 282 282 282 283 283 283 283 283 283 284 284 284 284 284 284 284 284 284 284 284 285 285 285 285 285 285 285 284 285 285
287 286 286 289 286 285 284 283 283 282 282 282 282 282 282 282 281 282 282 282 282 282 282 282 283 284 284 284 284 284 284 284 283 282 283 283 283 283 283 284 284 284 284 284
285 285 286 286 284 284 284 283 283 282 282 283 283 283 282 281 281 281 281 281 281 281 281 281 281 281 282 282 281 282 283 285 285 285 284 283 283 282 282 282 281 281 281 281
Wind_Speed
4 4 9 13 16 20 20 18 24 16 14 10 18 21 18 13 17 14 19 24 29 36 42 39 41 44 41 38 37 37 37 38 43 45 44 41 40 40 40 38 36 34 33 32
3 10 16 15 14 19 22 17 22 19 8 17 19 25 17 12 16 22 25 28 32 37 40 35 32 34 42 41 40 39 38 40 42 45 44 46 44 44 42 40 37 36 36 36
11 14 14 13 15 16 20 23 19 19 7 21 9 22 16 6 7 19 24 32 32 38 38 37 31 31 33 36 42 44 44 45 44 45 48 49 46 45 43 42 42 41 39 36
13 21 20 22 13 16 19 19 22 20 16 20 14 17 13 18 20 14 20 23 31 32 30 31 31 32 33 34 35 36 39 46 48 48 50 51 54 52 50 47 44 42 40 38
16 10 6 13 26 14 15 17 17 17 13 12 11 9 9 12 14 17 21 30 35 41 45 49 46 42 37 33 31 34 36 40 45 49 51 52 53 54 50 47 45 43 42 40
23 17 8 23 21 16 11 10 2 1 5 17 17 16 13 8 14 13 15 29 35 40 41 42 41 39 40 38 33 30 34 34 35 41 47 52 52 55 53 49 46 45 43 40
4 12 9 17 17 12 13 5 2 5 10 18 18 11 9 3 12 19 22 29 36 34 37 42 40 38 35 33 32 34 35 38 40 42 44 49 52 54 53 52 48 45 44 43
3 7 4 4 8 6 13 12 6 7 7 11 18 15 20 19 15 18 30 34 30 20 24 27 31 32 28 29 30 32 36 39 40 42 44 47 50 52 53 52 48 44 42 42
9 7 9 13 15 12 4 11 11 2 2 1 2 5 6 4 10 19 20 11 4 5 3 9 15 23 23 25 25 28 31 36 39 40 42 42 47 51 52 50 48 45 41 38
5 12 10 3 5 5 4 5 4 3 5 6 0 3 2 8 9 10 9 7 9 8 10 12 17 20 23 26 28 26 26 29 33 37 42 43 43 47 50 50 48 45 41 36
9 5 10 8 4 2 4 5 4 4 3 3 2 2 3 6 5 6 6 9 13 13 12 9 10 10 14 17 21 25 27 29 32 34 38 40 46 48 48 47 45 41 38 35
5 5 8 20 12 0 6 5 6 5 4 1 4 0 3 5 5 8 9 14 16 14 14 12 10 8 7 7 10 14 18 23 27 29 33 37 39 40 41 41 39 38 37 34
5 2 7 10 4 2 3 5 3 3 2 6 5 4 2 7 6 13 12 16 18 17 18 16 12 9 7 4 4 6 9 14 18 23 26 30 34 35 37 38 38 37 35 33
5 3 3 7 14 12 9 12 7 4 3 4 2 1 13 14 13 13 18 22 19 20 20 18 14 10 7 4 3 3 5 8 11 16 20 24 27 29 32 35 34 32 32 30
2 4 1 11 17 4 12 13 16 8 4 3 3 4 7 10 9 10 15 20 21 23 21 20 17 11 8 7 4 3 1 4 7 11 15 18 22 26 31 33 34 33 31 30
1 4 7 4 7 11 10 16 15 10 10 7 5 3 9 9 9 14 20 21 22 26 23 17 14 10 6 5 5 5 7 5 6 10 14 19 23 26 28 28 28 28 28 28
5 1 3 4 1 5 5 8 11 9 10 4 7 6 10 5 4 8 21 23 25 27 24 18 11 6 2 1 4 5 8 11 11 13 17 20 22 23 24 24 24 25 25 25
1 1 0 4 4 5 2 2 3 11 8 8 3 8 9 9 3 6 23 23 24 25 23 17 8 4 2 1 3 4 6 9 11 12 14 16 18 19 19 20 21 21 21 22
3 2 2 2 2 2 2 5 4 2 3 10 8 13 9 19 2 2 30 25 24 23 20 14 6 2 2 2 3 4 6 7 8 10 12 13 14 15 15 15 17 19 20 19
2 2 2 3 3 2 2 9 11 2 2 10 9 10 11 15 5 4 29 23 22 20 17 14 8 2 1 1 2 3 3 4 6 9 11 12 14 15 16 17 18 18 17 17
3 3 1 3 2 4 5 11 9 4 4 13 13 12 12 5 5 18 18 19 18 19 18 14 10 7 5 3 2 2 3 4 6 7 8 9 10 12 14 14 15 15 15 16
3 3 2 2 3 3 15 3 5 2 6 11 12 13 14 14 14 14 15 16 17 18 16 13 10 8 6 4 2 2 2 4 4 5 6 7 8 9 10 10 10 10 12 13
2 1 2 2 1 3 7 7 5 7 8 8 10 11 10 11 14 14 15 15 15 16 15 13 11 8 6 4 2 1 1 2 2 3 4 5 6 7 7 7 8 9 10 9
2 2 1 2 1 1 7 5 9 8 6 6 6 8 10 11 13 13 14 15 14 14 14 12 10 9 8 6 4 2 1 2 2 3 4 4 3 3 4 6 7 8 9 9
3 2 0 1 2 3 2 6 10 7 6 6 7 9 10 12 12 13 14 14 14 13 12 11 10 10 9 8 6 4 2 1 3 1 1 2 4 5 6 7 8 9 10 10
4 3 3 2 2 1 1 7 8 5 6 8 9 9 12 14 15 14 12 13 13 13 13 12 10 9 7 6 6 4 2 1 1 1 0 0 2 4 5 7 8 10 11 11
Wind_Direction
235 190 239 263 244 260 269 250 255 248 228 245 237 244 239 226 243 236 235 234 237 241 252 253 248 243 244 241 237 239 234 229 224 225 225 224 220 219 221 224 225 227 230 232
259 242 253 242 250 245 250 276 255 254 233 218 237 248 249 215 235 234 235 242 245 253 257 256 249 248 240 241 239 235 237 234 230 227 229 227 224 222 223 224 225 227 228 229
252 263 261 252 251 243 244 244 255 272 245 232 228 248 238 232 234 242 231 241 244 248 254 258 252 246 244 240 243 243 242 242 237 232 226 226 227 228 225 224 225 226 226 228
264 254 246 254 240 238 260 246 243 256 275 243 182 255 229 226 230 235 248 242 248 249 251 255 254 250 251 254 252 248 245 242 239 235 231 227 227 225 227 227 226 226 227 228
249 256 259 246 233 214 244 252 249 244 247 286 200 236 235 208 222 226 241 247 248 250 253 255 257 258 259 259 253 248 250 244 239 237 237 232 228 231 232 230 228 227 227 227
254 263 234 243 255 226 250 252 256 308 254 260 258 223 222 176 205 219 233 239 240 243 248 254 256 259 254 251 247 244 243 246 239 237 237 236 231 230 230 230 229 227 227 226
266 254 242 235 257 239 218 150 253 216 225 243 240 242 250 233 211 221 232 235 243 241 244 251 251 250 252 252 247 243 241 243 241 239 237 235 233 232 232 232 230 226 226 225
263 322 196 162 218 236 203 179 167 209 207 236 228 238 247 234 229 227 232 238 247 250 250 255 258 258 251 255 260 253 244 238 240 241 239 235 232 231 232 233 233 231 231 231
331 276 273 252 262 225 180 193 205 359 310 218 187 284 320 166 223 233 239 239 293 304 268 266 257 252 249 248 249 251 249 242 239 238 234 234 231 229 229 232 233 232 231 231
269 292 300 353 260 187 176 160 166 177 204 196 4 292 253 353 320 9 23 21 349 318 293 279 271 262 255 252 248 244 244 244 242 240 238 232 232 229 229 230 230 229 228 227
288 234 287 328 304 280 169 191 199 146 211 139 107 295 303 290 307 319 335 10 1 351 340 321 295 284 270 256 249 242 240 241 239 237 237 237 233 226 229 229 229 226 224 222
250 286 310 297 304 29 242 258 198 153 225 87 132 193 1 313 316 335 4 12 7 9 355 343 332 325 310 282 253 241 236 237 239 237 235 234 234 235 229 226 225 221 218 216
311 334 313 335 338 265 24 316 279 94 56 172 138 243 43 21 3 11 7 5 6 8 4 356 347 342 333 320 279 243 240 238 236 234 231 231 230 226 223 221 213 211 211 211
349 289 202 285 286 310 334 329 288 116 112 154 241 21 349 356 358 353 2 358 2 15 15 1 354 350 347 353 344 255 222 226 228 228 226 226 224 221 217 210 209 204 205 210
76 271 196 295 296 170 14 358 36 71 15 71 50 106 341 348 344 344 358 1 3 5 8 6 357 356 18 27 45 65 117 192 199 211 211 210 210 205 199 194 194 198 204 207
329 273 325 272 209 80 42 19 39 42 22 40 36 44 360 323 2 13 8 358 357 356 358 359 354 346 15 54 65 100 106 117 141 174 181 182 180 180 183 187 190 192 195 197
258 246 352 273 209 273 32 5 27 50 28 355 36 322 325 330 343 10 5 1 355 353 353 352 345 321 317 90 118 124 128 139 144 154 160 166 172 175 179 184 188 193 199 203
223 107 18 281 332 49 113 324 119 89 46 25 2 344 346 336 333 64 14 7 358 356 354 356 345 315 278 187 170 166 164 160 165 167 175 175 176 181 184 187 192 196 202 207
175 90 299 316 12 148 110 19 341 356 53 18 360 353 346 346 160 189 4 6 3 358 360 358 358 301 259 207 207 199 194 179 178 175 186 187 188 190 191 196 202 204 204 206
122 123 14 331 67 21 330 329 327 137 21 6 7 356 345 344 30 343 350 0 5 10 12 15 27 52 102 158 176 199 188 177 183 187 188 187 188 190 193 195 199 205 208 212
348 355 235 304 72 314 336 311 307 58 296 346 350 347 342 347 330 321 345 0 8 12 17 25 35 56 73 98 135 162 150 155 171 185 195 193 195 197 200 202 201 203 208 208
353 319 343 11 55 330 348 346 59 307 320 333 343 351 344 339 351 359 1 1 7 14 19 28 32 42 45 50 65 133 150 153 167 178 191 197 198 197 198 200 198 202 209 204
28 353 320 350 235 123 76 107 27 350 306 326 336 349 346 348 2 2 5 6 12 14 16 19 19 19 22 25 33 43 140 180 192 189 187 190 188 184 185 187 188 196 203 200
228 351 282 209 11 87 78 41 359 2 334 339 1 9 9 11 14 12 12 11 15 15 17 19 16 15 15 11 10 22 70 126 147 164 179 183 183 187 187 188 193 199 199 194
205 3 241 249 162 135 169 14 356 0 354 24 33 28 20 29 25 21 15 14 12 10 9 8 8 13 15 17 9 8 7 30 68 31 133 167 181 188 188 188 189 192 193 188
187 188 167 229 143 217 273 326 341 352 11 32 37 42 38 33 31 29 24 19 18 16 11 10 9 3 354 355 348 331 309 300 303 304 342 123 181 180 184 185 183 184 183 181